BMCB-29 Weather Reports


time (UTC)temp
F
wind
direction
speed
knots
gust
knots
rain 1hr
in
rain 24hr
in
rain mn
in
humidity
%
barometer
mb
20260507192047 52 0 0.0 0.0 0.00 0.00 0.00 92 1018.5
20260507191048 52 0 0.0 0.0 0.00 0.00 0.00 92 1018.5
20260507184045 53 0 0.0 0.0 0.00 0.00 0.00 88 1018.4
20260507183051 54 0 0.0 0.0 0.00 0.00 0.00 86 1018.4
20260507182050 54 0 0.0 0.0 0.00 0.00 0.00 84 1018.4
20260507181046 53 0 0.0 0.0 0.00 0.00 0.00 86 1018.4
20260507180047 54 0 0.0 0.0 0.00 0.00 0.00 83 1018.4
20260507175046 55 0 0.0 0.0 0.00 0.00 0.00 79 1018.2
20260507173048 57 0 0.0 0.0 0.00 0.00 0.00 68 1018.2
20260507172050 57 0 0.0 0.0 0.00 0.00 0.00 67 1018.2
20260507171047 57 0 0.0 0.0 0.00 0.00 0.00 66 1018.1
20260507170050 58 0 0.0 0.0 0.00 0.00 0.00 63 1018.1
20260507165047 58 0 0.0 0.0 0.00 0.00 0.00 62 1018.1
20260507164050 58 0 0.0 0.0 0.00 0.00 0.00 62 1018.0
20260507163047 58 0 0.0 0.0 0.00 0.00 0.00 63 1018.0
20260507162049 58 0 0.0 0.0 0.00 0.00 0.00 63 1018.0
20260507161048 58 0 0.0 0.0 0.00 0.00 0.00 62 1018.0
20260507160045 58 0 0.0 0.0 0.00 0.00 0.00 63 1018.0
20260507155049 58 0 0.0 0.0 0.00 0.00 0.00 62 1018.0
20260507153046 58 0 0.0 0.0 0.00 0.00 0.00 61 1018.1
20260507151047 58 0 0.0 0.0 0.00 0.00 0.00 61 1018.1
20260507145045 58 0 0.0 0.0 0.00 0.00 0.00 61 1018.0
20260507144046 59 0 0.0 0.0 0.00 0.00 0.00 63 1018.0
20260507143046 58 0 0.0 0.0 0.00 0.00 0.00 62 1018.1
20260507142045 58 0 0.0 0.0 0.00 0.00 0.00 62 1018.1
20260507141045 59 0 0.0 0.0 0.00 0.00 0.00 62 1018.1
20260507140053 58 0 0.0 0.0 0.00 0.00 0.00 64 1018.2
20260507135049 58 0 0.0 0.0 0.00 0.00 0.00 63 1018.3
20260507134045 57 0 0.0 0.0 0.00 0.00 0.00 63 1018.3
20260507133046 57 0 0.0 0.0 0.00 0.00 0.00 63 1018.3
20260507132045 57 0 0.0 0.0 0.00 0.00 0.00 64 1018.3
20260507131044 57 0 0.0 0.0 0.00 0.00 0.00 61 1018.2
20260507130045 57 0 0.0 0.0 0.00 0.00 0.00 62 1018.3
20260507125043 57 0 0.0 0.0 0.00 0.00 0.00 63 1018.3
20260507124047 57 0 0.0 0.0 0.00 0.00 0.00 64 1018.3
20260507123044 57 0 0.0 0.0 0.00 0.00 0.00 64 1018.3
20260507122042 57 0 0.0 0.0 0.00 0.00 0.00 65 1018.3
20260507121046 57 0 0.0 0.0 0.00 0.00 0.00 66 1018.3
20260507120045 57 0 0.0 0.0 0.00 0.00 0.00 65 1018.3
20260507115045 57 0 0.0 0.0 0.00 0.00 0.00 65 1018.3
20260507114044 57 0 0.0 0.0 0.00 0.00 0.00 63 1018.3
20260507112047 56 0 0.0 0.0 0.00 0.00 0.00 67 1018.3
20260507111044 56 0 0.0 0.0 0.00 0.00 0.00 71 1018.3
20260507110047 56 0 0.0 0.0 0.00 0.00 0.00 73 1018.4
20260507104040 55 0 0.0 0.0 0.00 0.00 0.00 71 1018.4
20260507103044 55 0 0.0 0.0 0.00 0.00 0.00 74 1018.4
20260507102045 55 0 0.0 0.0 0.00 0.01 0.00 74 1018.4
20260507101046 55 0 0.0 0.0 0.00 0.01 0.00 71 1018.4
20260507100045 55 0 0.0 0.0 0.00 0.01 0.00 71 1018.4
20260507095043 55 0 0.0 0.0 0.00 0.01 0.00 73 1018.3
20260507094046 55 0 0.0 0.0 0.00 0.02 0.00 76 1018.3
20260507093042 54 0 0.0 0.0 0.00 0.02 0.00 77 1018.2
20260507092042 54 0 0.0 0.0 0.00 0.02 0.00 76 1018.2
20260507091044 54 0 0.0 0.0 0.00 0.02 0.00 75 1018.2
20260507090043 54 0 0.0 0.0 0.00 0.03 0.00 78 1018.1
20260507085044 53 0 0.0 0.0 0.00 0.04 0.00 78 1018.1
20260507084045 53 0 0.0 0.0 0.00 0.05 0.00 79 1018.1
20260507083044 52 0 0.0 0.0 0.00 0.06 0.00 81 1018.1
20260507082043 52 0 0.0 0.0 0.00 0.06 0.00 84 1018.0
20260507081046 51 0 0.0 0.0 0.00 0.06 0.00 85 1018.0
20260507080043 51 0 0.0 0.0 0.00 0.06 0.00 85 1017.9
20260507075045 51 0 0.0 0.0 0.00 0.06 0.00 85 1017.9
20260507074044 50 0 0.0 0.0 0.00 0.06 0.00 86 1017.9
20260507073043 50 0 0.0 0.0 0.00 0.07 0.00 89 1017.8
20260507072041 49 0 0.0 0.0 0.00 0.08 0.00 92 1017.8
20260507071042 49 0 0.0 0.0 0.00 0.09 0.00 93 1017.8
20260507070042 49 0 0.0 0.0 0.00 0.09 0.00 93 1017.7
20260507065041 48 0 0.0 0.0 0.00 0.09 0.00 93 1017.7
20260507064043 48 0 0.0 0.0 0.00 0.09 0.00 95 1017.7
20260507063042 47 0 0.0 0.0 0.00 0.09 0.00 98 1017.6
20260507060044 46 0 0.0 0.0 0.00 0.13 0.00 10 1017.4
20260507055040 46 0 0.0 0.0 0.00 0.13 0.00 10 1017.3
20260507054045 46 0 0.0 0.0 0.00 0.14 0.00 10 1017.2
20260507053043 46 0 0.0 0.0 0.00 0.15 0.00 10 1017.0
20260507052045 45 0 0.0 0.0 0.00 0.16 0.00 10 1017.0
20260507051045 45 0 0.0 0.0 0.00 0.17 0.00 10 1016.8
20260507050042 45 0 0.0 0.0 0.00 0.18 0.00 10 1016.7
20260507045044 45 0 0.0 0.0 0.00 0.19 0.00 10 1016.5
20260507044045 45 0 0.0 0.0 0.00 0.20 0.00 10 1016.4
20260507043044 44 0 0.0 0.0 0.00 0.21 0.00 10 1016.5
20260507042045 44 0 0.0 0.0 0.00 0.21 0.00 10 1016.4
20260507041044 44 0 0.0 0.0 0.00 0.22 0.00 10 1016.3
20260507040044 45 0 0.0 0.0 0.00 0.23 0.00 10 1016.2
20260507035043 45 0 0.0 0.0 0.00 0.23 0.00 10 1016.2
20260507034044 45 0 0.0 0.0 0.00 0.24 0.00 10 1016.2
20260507032046 45 0 0.0 0.0 0.00 0.25 0.00 10 1016.1
20260507030045 45 0 0.0 0.0 0.00 0.28 0.00 10 1015.9
20260507025044 45 0 0.0 0.0 0.00 0.28 0.00 10 1015.9
20260507024042 45 0 0.0 0.0 0.00 0.30 0.00 10 1015.9
20260507023041 45 0 0.0 0.0 0.00 0.31 0.00 10 1015.8
20260507022045 45 0 0.0 0.0 0.00 0.32 0.00 10 1015.7
20260507021047 45 0 0.0 0.0 0.00 0.33 0.00 10 1015.6
20260507020042 45 0 0.0 0.0 0.00 0.34 0.00 10 1015.6
20260507015042 45 0 0.0 0.0 0.00 0.35 0.00 10 1015.6
20260507014042 45 0 0.0 0.0 0.00 0.35 0.00 10 1015.6
20260507013041 45 0 0.0 0.0 0.00 0.37 0.00 10 1015.6
20260507012041 45 0 0.0 0.0 0.00 0.38 0.00 10 1015.5
20260507011043 45 0 0.0 0.0 0.00 0.39 0.00 10 1015.5
20260507010044 44 0 0.0 0.0 0.00 0.41 0.00 10 1015.5
20260507005042 44 0 0.0 0.0 0.00 0.43 0.00 10 1015.5
20260507004044 44 0 0.0 0.0 0.00 0.43 0.00 10 1015.4
20260507003042 44 0 0.0 0.0 0.00 0.44 0.00 10 1015.4
20260507002043 44 0 0.0 0.0 0.00 0.45 0.00 10 1015.4
20260507001043 44 0 0.0 0.0 0.00 0.46 0.00 10 1015.4
20260507000042 44 0 0.0 0.0 0.00 0.46 0.00 10 1015.4
20260506235046 44 0 0.0 0.0 0.00 0.47 0.00 10 1015.3
20260506234047 43 0 0.0 0.0 0.00 0.49 0.00 10 1015.3
20260506233045 43 0 0.0 0.0 0.00 0.49 0.00 10 1015.2
20260506232045 42 0 0.0 0.0 0.00 0.50 0.00 10 1015.2
20260506231043 42 0 0.0 0.0 0.00 0.50 0.00 10 1015.1
20260506230046 42 0 0.0 0.0 0.00 0.51 0.00 10 1015.0
20260506225047 42 0 0.0 0.0 0.00 0.52 0.00 99 1015.0
20260506220054 44 0 0.0 0.0 0.00 0.58 0.00 97 1014.5
20260506215047 44 0 0.0 0.0 0.00 0.59 0.58 96 1014.5
20260506214047 44 0 0.0 0.0 0.00 0.60 0.58 95 1014.4
20260506213045 45 0 0.0 0.0 0.00 0.61 0.58 92 1014.3
20260506212050 47 0 0.0 0.0 0.00 0.61 0.58 92 1014.1
20260506211047 47 0 0.0 0.0 0.00 0.61 0.58 93 1014.0
20260506210050 47 0 0.0 0.0 0.00 0.62 0.58 93 1013.9
20260506204048 48 0 0.0 0.0 0.00 0.63 0.58 93 1013.6
20260506203050 48 0 0.0 0.0 0.00 0.64 0.58 95 1013.5
20260506202049 49 0 0.0 0.0 0.00 0.64 0.58 96 1013.4
20260506201050 49 0 0.0 0.0 0.00 0.65 0.58 97 1013.3
20260506200050 50 0 0.0 0.0 0.00 0.65 0.58 97 1013.2
20260506195047 50 0 0.0 0.0 0.00 0.66 0.58 96 1013.1
20260506194048 50 0 0.0 0.0 0.00 0.67 0.58 97 1013.1
20260506193045 51 0 0.0 0.0 0.00 0.69 0.58 97 1012.9